Location: Altleiningen
(49.5078°N, 8.0741°E)
Time: 04:58:20
(UTC+00:00)

Cosmos 1302 Rocket - Pass Details

Date: 03 March 2021
Orbit: 756 x 777 km, 74.0° (Epoch: 11 April)

Event Time Altitude Azimuth Distance (km) Brightness Sun altitude
Rises 18:08:35 0° 210° (SSW) 3,200 7.6 -9.7°
Reaches altitude 10° 18:10:58 10° 214° (SSW) 2,280 6.9 -10.1°
Maximum altitude 18:16:06 66° 296° (WNW) 832 4.4 -10.9°
Drops below altitude 10° 18:21:18 10° 19° (NNE) 2,305 6.3 -11.7°
Sets 18:23:43 0° 23° (NNE) 3,238 7.1 -12.1°
